Location: Dal�� Lhota
(48.7500°N, 14.0167°E)
Time: 16:26:00
(UTC+00:00)

Vanguard 3 - Pass Details

Date: 01 August 2021
Orbit: 510 x 3260 km, 33.3° (Epoch: 20 September)

Event Time Altitude Azimuth Distance (km) Brightness Sun altitude
Rises 18:02:19 0° 243° (WSW) 5,873 12.2 5.1°
Reaches altitude 10° 18:05:55 10° 238° (WSW) 5,177 11.8 4.5°
Maximum altitude 18:21:16 47° 172° (S) 3,795 10.4 2.2°
Drops below altitude 10° 18:39:28 10° 107° (ESE) 6,067 11.0 -0.5°
Sets 18:44:08 0° 102° (ESE) 6,916 11.3 -1.1°
